Time,TemperatureF,DewpointF,PressureIn,WindDirection,WindDirectionDegrees,WindSpeedMPH,WindSpeedGustMPH,Humidity,HourlyPrecipIn,Conditions,Clouds,dailyrainin,SolarRadiationWatts/m^2,SoftwareType,DateUTC
2017-06-23 00:07:00,57.6,48.0,30.08,South,186,0.0,6.0,70,0.00,,,0.00,0,weatherlink.com 1.10,2017-06-23 06:07:00,
2017-06-23 00:23:00,57.5,48.0,30.07,South,183,2.0,8.0,71,0.00,,,0.00,0,weatherlink.com 1.10,2017-06-23 06:23:00,
2017-06-23 00:38:00,56.7,48.0,30.08,South,179,4.0,6.0,73,0.00,,,0.00,0,weatherlink.com 1.10,2017-06-23 06:38:00,
2017-06-23 00:53:00,56.0,47.0,30.08,South,176,2.0,4.0,73,0.00,,,0.00,0,weatherlink.com 1.10,2017-06-23 06:53:00,
2017-06-23 01:08:00,57.0,48.0,30.08,South,176,0.0,0.0,73,0.00,,,0.00,0,weatherlink.com 1.10,2017-06-23 07:08:00,
2017-06-23 01:23:00,57.2,49.0,30.08,South,178,2.0,8.0,75,0.00,,,0.00,0,weatherlink.com 1.10,2017-06-23 07:23:00,
2017-06-23 01:38:00,56.3,50.0,30.10,SSW,194,2.0,4.0,78,0.00,,,0.00,0,weatherlink.com 1.10,2017-06-23 07:38:00,
2017-06-23 01:53:00,56.7,51.0,30.10,South,188,2.0,2.0,81,0.00,,,0.00,0,weatherlink.com 1.10,2017-06-23 07:53:00,
2017-06-23 02:08:00,57.0,51.0,30.11,South,186,0.0,0.0,80,0.00,,,0.00,0,weatherlink.com 1.10,2017-06-23 08:08:00,
2017-06-23 02:23:00,55.7,51.0,30.11,SSW,198,2.0,3.0,83,0.00,,,0.00,0,weatherlink.com 1.10,2017-06-23 08:23:00,
2017-06-23 02:38:00,54.5,50.0,30.11,SSW,200,3.0,3.0,85,0.00,,,0.00,0,weatherlink.com 1.10,2017-06-23 08:38:00,
2017-06-23 02:53:00,55.7,52.0,30.12,SSW,204,0.0,4.0,87,0.00,,,0.00,0,weatherlink.com 1.10,2017-06-23 08:53:00,
2017-06-23 03:08:00,56.5,52.0,30.11,WSW,239,2.0,3.0,86,0.00,,,0.00,0,weatherlink.com 1.10,2017-06-23 09:08:00,
2017-06-23 03:23:00,56.2,51.0,30.12,West,266,2.0,4.0,83,0.00,,,0.00,0,weatherlink.com 1.10,2017-06-23 09:23:00,
2017-06-23 03:38:00,55.7,51.0,30.12,WNW,290,3.0,4.0,83,0.00,,,0.00,0,weatherlink.com 1.10,2017-06-23 09:38:00,
2017-06-23 03:53:00,54.7,51.0,30.12,WNW,296,11.0,11.0,86,0.00,,,0.00,0,weatherlink.com 1.10,2017-06-23 09:53:00,
2017-06-23 04:08:00,54.2,51.0,30.12,NW,309,10.0,15.0,88,0.00,,,0.00,0,weatherlink.com 1.10,2017-06-23 10:08:00,
2017-06-23 04:23:00,54.4,51.0,30.13,NW,306,15.0,18.0,88,0.00,,,0.00,0,weatherlink.com 1.10,2017-06-23 10:23:00,
2017-06-23 04:38:00,54.2,51.0,30.14,WNW,300,11.0,18.0,88,0.00,,,0.00,0,weatherlink.com 1.10,2017-06-23 10:38:00,
2017-06-23 04:53:00,54.4,51.0,30.15,NW,311,11.0,19.0,88,0.00,,,0.00,0,weatherlink.com 1.10,2017-06-23 10:53:00,
2017-06-23 05:14:00,54.4,51.0,30.16,NW,321,14.0,20.0,88,0.00,,,0.00,0,weatherlink.com 1.10,2017-06-23 11:14:00,
2017-06-23 05:23:00,54.5,51.0,30.17,NW,306,12.0,21.0,88,0.00,,,0.00,0,weatherlink.com 1.10,2017-06-23 11:23:00,
2017-06-23 05:38:00,54.4,51.0,30.17,NW,317,18.0,23.0,88,0.00,,,0.00,0,weatherlink.com 1.10,2017-06-23 11:38:00,
2017-06-23 05:53:00,54.2,51.0,30.18,NNW,340,17.0,22.0,89,0.00,,,0.00,5,weatherlink.com 1.10,2017-06-23 11:53:00,
2017-06-23 06:08:00,53.5,51.0,30.19,NNW,344,14.0,22.0,91,0.00,,,0.00,7,weatherlink.com 1.10,2017-06-23 12:08:00,
2017-06-23 06:23:00,53.2,51.0,30.21,NNW,342,20.0,21.0,92,0.00,,,0.00,11,weatherlink.com 1.10,2017-06-23 12:23:00,
2017-06-23 06:39:00,50.5,48.0,30.23,NNE,15,16.0,24.0,91,0.00,,,0.00,0,weatherlink.com 1.10,2017-06-23 12:39:00,
2017-06-23 06:54:00,47.9,46.0,30.23,NE,49,15.0,23.0,93,0.00,,,0.00,25,weatherlink.com 1.10,2017-06-23 12:54:00,
2017-06-23 07:09:00,47.4,46.0,30.25,NNE,20,14.0,16.0,94,0.00,,,0.00,12,weatherlink.com 1.10,2017-06-23 13:09:00,
2017-06-23 07:24:00,46.7,45.0,30.28,NNE,32,16.0,20.0,94,0.00,,,0.00,14,weatherlink.com 1.10,2017-06-23 13:24:00,
2017-06-23 07:39:00,46.5,45.0,30.28,NE,44,14.0,22.0,95,0.00,,,0.00,14,weatherlink.com 1.10,2017-06-23 13:39:00,
2017-06-23 07:54:00,46.5,45.0,30.30,NNE,28,10.0,18.0,95,0.00,,,0.00,14,weatherlink.com 1.10,2017-06-23 13:54:00,
2017-06-23 08:09:00,43.3,41.0,30.32,NNE,13,18.0,25.0,92,0.01,,,0.01,30,weatherlink.com 1.10,2017-06-23 14:09:00,
2017-06-23 08:24:00,41.6,40.0,30.32,NNE,15,16.0,21.0,94,0.02,,,0.02,60,weatherlink.com 1.10,2017-06-23 14:24:00,
2017-06-23 08:39:00,42.1,41.0,30.32,NNE,32,17.0,18.0,95,0.02,,,0.02,134,weatherlink.com 1.10,2017-06-23 14:39:00,
2017-06-23 08:54:00,41.9,41.0,30.33,North,360,11.0,18.0,95,0.02,,,0.02,111,weatherlink.com 1.10,2017-06-23 14:54:00,
2017-06-23 09:09:00,41.6,40.0,30.33,North,360,10.0,16.0,95,0.01,,,0.02,102,weatherlink.com 1.10,2017-06-23 15:09:00,
2017-06-23 09:24:00,41.2,40.0,30.34,NW,325,1.0,11.0,95,0.00,,,0.02,86,weatherlink.com 1.10,2017-06-23 15:24:00,
2017-06-23 09:39:00,40.9,40.0,30.34,NNW,332,3.0,10.0,95,0.00,,,0.02,109,weatherlink.com 1.10,2017-06-23 15:39:00,
2017-06-23 09:54:00,41.1,40.0,30.34,NNW,346,2.0,6.0,95,0.00,,,0.02,149,weatherlink.com 1.10,2017-06-23 15:54:00,
2017-06-23 10:09:00,41.2,40.0,30.34,NNW,341,2.0,4.0,95,0.00,,,0.02,165,weatherlink.com 1.10,2017-06-23 16:09:00,
2017-06-23 10:24:00,41.6,40.0,30.35,NNW,348,2.0,3.0,95,0.00,,,0.02,202,weatherlink.com 1.10,2017-06-23 16:24:00,
2017-06-23 10:39:00,42.6,41.0,30.35,NNE,17,0.0,3.0,95,0.00,,,0.02,357,weatherlink.com 1.10,2017-06-23 16:39:00,
2017-06-23 10:54:00,42.5,41.0,30.35,NNE,31,0.0,3.0,95,0.00,,,0.02,241,weatherlink.com 1.10,2017-06-23 16:54:00,
2017-06-23 11:09:00,43.8,43.0,30.36,ENE,63,0.0,3.0,95,0.00,,,0.02,287,weatherlink.com 1.10,2017-06-23 17:09:00,
2017-06-23 11:24:00,44.3,43.0,30.37,East,83,2.0,3.0,94,0.00,,,0.02,338,weatherlink.com 1.10,2017-06-23 17:24:00,
2017-06-23 11:39:00,44.8,43.0,30.36,ESE,102,1.0,2.0,93,0.00,,,0.02,211,weatherlink.com 1.10,2017-06-23 17:39:00,
2017-06-23 11:54:00,45.1,43.0,30.37,SE,140,2.0,4.0,92,0.00,,,0.02,151,weatherlink.com 1.10,2017-06-23 17:54:00,
2017-06-23 12:09:00,45.5,43.0,30.37,ESE,123,2.0,7.0,91,0.01,,,0.03,186,weatherlink.com 1.10,2017-06-23 18:09:00,
2017-06-23 12:24:00,47.1,44.0,30.37,ESE,116,11.0,13.0,90,0.01,,,0.03,397,weatherlink.com 1.10,2017-06-23 18:24:00,
2017-06-23 12:39:00,49.9,46.0,30.36,SSE,157,8.0,13.0,85,0.01,,,0.03,802,weatherlink.com 1.10,2017-06-23 18:39:00,
2017-06-23 12:54:00,50.7,44.0,30.36,SSE,165,11.0,18.0,78,0.01,,,0.03,548,weatherlink.com 1.10,2017-06-23 18:54:00,
2017-06-23 13:10:00,51.1,43.0,30.36,South,186,12.0,17.0,75,0.00,,,0.03,492,weatherlink.com 1.10,2017-06-23 19:10:00,
2017-06-23 13:24:00,51.1,43.0,30.37,South,171,13.0,19.0,74,0.00,,,0.03,455,weatherlink.com 1.10,2017-06-23 19:24:00,
2017-06-23 13:39:00,51.3,43.0,30.37,South,184,11.0,17.0,74,0.00,,,0.03,329,weatherlink.com 1.10,2017-06-23 19:39:00,
2017-06-23 13:54:00,51.9,44.0,30.37,SSE,163,14.0,19.0,75,0.00,,,0.03,343,weatherlink.com 1.10,2017-06-23 19:54:00,
2017-06-23 14:09:00,51.6,44.0,30.36,SE,144,11.0,21.0,74,0.00,,,0.03,396,weatherlink.com 1.10,2017-06-23 20:09:00,
2017-06-23 14:24:00,51.4,43.0,30.37,SSE,147,10.0,21.0,73,0.00,,,0.03,294,weatherlink.com 1.10,2017-06-23 20:24:00,
2017-06-23 14:40:00,51.4,43.0,30.38,SSE,161,12.0,17.0,74,0.00,,,0.03,258,weatherlink.com 1.10,2017-06-23 20:40:00,
2017-06-23 14:54:00,51.7,44.0,30.37,SSW,196,9.0,16.0,74,0.00,,,0.03,315,weatherlink.com 1.10,2017-06-23 20:54:00,
2017-06-23 15:10:00,51.3,44.0,30.38,South,186,6.0,19.0,76,0.00,,,0.03,223,weatherlink.com 1.10,2017-06-23 21:10:00,
2017-06-23 15:25:00,51.0,44.0,30.39,SE,132,8.0,15.0,76,0.00,,,0.03,151,weatherlink.com 1.10,2017-06-23 21:25:00,
2017-06-23 15:40:00,50.8,44.0,30.39,South,172,6.0,10.0,76,0.00,,,0.03,146,weatherlink.com 1.10,2017-06-23 21:40:00,
2017-06-23 15:55:00,51.1,44.0,30.39,South,187,5.0,11.0,76,0.00,,,0.03,162,weatherlink.com 1.10,2017-06-23 21:55:00,
2017-06-23 16:10:00,50.8,44.0,30.40,South,186,7.0,8.0,77,0.00,,,0.03,137,weatherlink.com 1.10,2017-06-23 22:10:00,
2017-06-23 16:25:00,50.8,44.0,30.40,SSE,156,7.0,10.0,77,0.00,,,0.03,120,weatherlink.com 1.10,2017-06-23 22:25:00,
2017-06-23 16:40:00,50.8,44.0,30.40,SE,129,7.0,9.0,77,0.00,,,0.03,142,weatherlink.com 1.10,2017-06-23 22:40:00,
2017-06-23 16:55:00,51.0,44.0,30.41,SE,135,8.0,12.0,77,0.00,,,0.03,186,weatherlink.com 1.10,2017-06-23 22:55:00,
2017-06-23 17:10:00,51.3,44.0,30.41,SE,130,2.0,8.0,77,0.00,,,0.03,146,weatherlink.com 1.10,2017-06-23 23:10:00,
2017-06-23 17:25:00,50.8,44.0,30.42,SE,136,5.0,10.0,77,0.00,,,0.03,97,weatherlink.com 1.10,2017-06-23 23:25:00,
2017-06-23 17:40:00,50.8,44.0,30.42,SE,132,5.0,8.0,77,0.00,,,0.03,100,weatherlink.com 1.10,2017-06-23 23:40:00,
2017-06-23 17:55:00,51.0,44.0,30.43,SE,135,4.0,7.0,78,0.00,,,0.03,107,weatherlink.com 1.10,2017-06-23 23:55:00,
2017-06-23 18:10:00,50.7,44.0,30.44,SE,132,0.0,7.0,78,0.00,,,0.03,93,weatherlink.com 1.10,2017-06-24 00:10:00,
2017-06-23 18:25:00,50.7,44.0,30.45,ENE,77,0.0,0.0,78,0.00,,,0.03,62,weatherlink.com 1.10,2017-06-24 00:25:00,
2017-06-23 18:40:00,50.7,44.0,30.46,East,80,0.0,0.0,78,0.00,,,0.03,42,weatherlink.com 1.10,2017-06-24 00:40:00,
2017-06-23 18:55:00,50.7,44.0,30.46,East,82,0.0,1.0,78,0.00,,,0.03,33,weatherlink.com 1.10,2017-06-24 00:55:00,
2017-06-23 19:10:00,50.5,44.0,30.47,East,82,0.0,0.0,78,0.00,,,0.03,26,weatherlink.com 1.10,2017-06-24 01:10:00,
2017-06-23 19:25:00,50.5,44.0,30.48,East,82,0.0,0.0,78,0.00,,,0.03,30,weatherlink.com 1.10,2017-06-24 01:25:00,
2017-06-23 19:40:00,50.4,44.0,30.48,East,91,0.0,0.0,79,0.00,,,0.03,26,weatherlink.com 1.10,2017-06-24 01:40:00,
2017-06-23 19:55:00,50.1,45.0,30.50,NNE,22,0.0,1.0,81,0.00,,,0.03,14,weatherlink.com 1.10,2017-06-24 01:55:00,
2017-06-23 20:10:00,50.1,45.0,30.50,NNE,22,0.0,2.0,81,0.00,,,0.03,9,weatherlink.com 1.10,2017-06-24 02:10:00,
2017-06-23 20:25:00,49.9,45.0,30.51,NNE,22,0.0,0.0,82,0.00,,,0.03,0,weatherlink.com 1.10,2017-06-24 02:25:00,
2017-06-23 20:40:00,49.9,45.0,30.51,NNE,22,0.0,0.0,82,0.00,,,0.03,0,weatherlink.com 1.10,2017-06-24 02:40:00,
2017-06-23 20:55:00,49.8,45.0,30.52,NNE,22,0.0,0.0,83,0.00,,,0.03,0,weatherlink.com 1.10,2017-06-24 02:55:00,
2017-06-23 21:10:00,49.4,45.0,30.53,NNE,22,0.0,0.0,84,0.00,,,0.03,0,weatherlink.com 1.10,2017-06-24 03:10:00,
2017-06-23 21:25:00,49.2,45.0,30.54,NNE,22,0.0,0.0,85,0.00,,,0.03,0,weatherlink.com 1.10,2017-06-24 03:25:00,
2017-06-23 21:40:00,49.2,45.0,30.55,NNE,22,0.0,0.0,85,0.00,,,0.03,0,weatherlink.com 1.10,2017-06-24 03:40:00,
2017-06-23 21:55:00,49.2,45.0,30.55,NNE,22,0.0,0.0,86,0.00,,,0.03,0,weatherlink.com 1.10,2017-06-24 03:55:00,
2017-06-23 22:10:00,48.9,45.0,30.56,NNE,22,0.0,0.0,86,0.00,,,0.03,0,weatherlink.com 1.10,2017-06-24 04:10:00,